Tracking 19817 objects as of 19-Aug-2019
HD Live streaming from Space Station
objects crossing your sky now

COSMOS 2251 DEB

Track COSMOS 2251 DEB now!
10-day predictions


NORAD ID: 39589
Int'l Code: 1993-036BUU
Perigee: 569.2 km
Apogee: 604.3 km
Inclination: 74.0 °
Period: 96.3 minutes
Semi major axis: 6957 km
RCS: 0.0086 m2 (small)
Launch date: June 16, 1993
Source: Commonwealth of Independent States (former USSR) (CIS)
Launch site: PLESETSK MISSILE AND SPACE COMPLEX (PKMTR)

Note: This is SATELLITE DEBRIS
aabbcc
Your satellite tracking list
Your tracking list is empty




NASA's NSSDC Master Catalog

Two Line Element Set (TLE):
1 39589U 93036BUU 19230.40920230 +.00002568 +00000-0 +23168-3 0  9994
2 39589 074.0059 143.7445 0025185 120.4640 354.6367 14.95891524516056
Source of the keplerian elements: AFSPC